Home   Weather   Maastricht   Past weeks

Flag for Netherlands Past Weather in Maastricht, Netherlands — Yesterday and Last 2 Weeks

43 °F


Feels Like: 39 °F
Forecast: 46 / 60 °F
Wind: 6 mph from Southwest

Location: Maastricht Airport Zuid Limburg

Current Time: Oct 26, 2016 at 9:32:41 AM

Latest Report: Oct 26, 2016 at 8:55 AM

Visibility: 0 mi

Pressure: 30.36 "Hg

Humidity: 100%

Dew Point: 43 °F

Location of MaastrichtLocation

Past Weather in Maastricht — Graph


Maastricht Temperature Yesterday

Maximum temperature yesterday: 50 °F (at 12:25 AM)
Minimum temperature yesterday: 48 °F (at 5:55 AM)
Average temperature yesterday: 49 °F

High & Low Weather Summary for the Past Weeks

High70 °F (Oct 16, 3:25 PM)100% (Oct 11, 8:25 AM)30.36 "Hg (Oct 11, 8:25 AM)
Low30 °F (Oct 23, 8:25 AM)49% (Oct 16, 2:55 PM)29.65 "Hg (Oct 14, 8:25 PM)
Average49 °F87%30.00 "Hg
* Reported Oct 11 8:25 AM — Oct 26 8:25 AM, Maastricht, Weather by CustomWeather, © 2016

Note: Actual official high and low records may vary slightly from our data, if they occured in-between our weather recording intervals... More about our weather records


Maastricht Weather History for the Previous 24 Hours

Scroll right to see more
Time TempWeatherWind HumidityBarometerVisibility
8:25 AM
Wed, Oct 26
43 °FFog.6 mph100%30.36 "Hg0 mi
7:55 AM45 °FFog.3 mph100%30.36 "Hg0 mi
7:25 AM45 °FFog.5 mph100%30.36 "Hg0 mi
6:55 AM43 °FFog.5 mph100%30.33 "Hg0 mi
6:25 AM43 °FFog.2 mph100%30.33 "Hg0 mi
5:55 AM45 °FFog.2 mph100%30.33 "Hg0 mi
5:25 AM45 °FFog.3 mph100%30.33 "Hg0 mi
4:55 AM43 °FFog.2 mph100%30.33 "Hg0 mi
4:25 AM46 °FFog.No wind93%30.33 "Hg1 mi
3:55 AM46 °FFog.1 mph100%30.33 "Hg1 mi
3:25 AM46 °FFog.1 mph100%30.33 "Hg1 mi
2:55 AM46 °FFog.No wind100%30.33 "Hg2 mi
2:25 AM48 °FFog.No wind94%30.33 "Hg2 mi
1:55 AM48 °FFog.1 mph94%30.33 "Hg2 mi
1:25 AM48 °FFog.No wind94%30.33 "Hg2 mi
12:55 AM48 °FFog.1 mph94%30.30 "Hg2 mi
12:25 AM48 °FFog.2 mph94%30.30 "Hg2 mi
11:55 PM
Tue, Oct 25
48 °FFog.2 mph94%30.30 "Hg2 mi
11:25 PM48 °FFog.3 mph94%30.30 "Hg2 mi
10:55 PM48 °FFog.5 mph94%30.30 "Hg2 mi
10:25 PM48 °FFog.3 mph94%30.30 "Hg1 mi
9:55 PM48 °FFog.5 mph94%30.30 "Hg1 mi
9:25 PM48 °FFog.5 mph94%30.30 "Hg2 mi
8:55 PM48 °FFog.2 mph94%30.30 "Hg2 mi
8:25 PM48 °FFog.3 mph94%30.27 "Hg2 mi
7:55 PM48 °FFog.5 mph100%30.27 "Hg2 mi
7:25 PM48 °FFog.5 mph94%30.27 "Hg2 mi
6:55 PM48 °FFog.5 mph94%30.27 "Hg2 mi
6:25 PM48 °FFog.2 mph100%30.27 "Hg2 mi
5:55 PM50 °FFog.3 mph88%30.27 "Hg2 mi
5:25 PM50 °FFog.2 mph88%30.24 "Hg3 mi
4:55 PM50 °FOvercast.1 mph88%30.24 "Hg4 mi
4:25 PM50 °FOvercast.1 mph88%30.24 "Hg4 mi
3:55 PM50 °FBroken clouds.1 mph88%30.24 "Hg4 mi
3:25 PM50 °FFog.2 mph88%30.21 "Hg3 mi
2:55 PM50 °FFog.3 mph88%30.21 "Hg3 mi
2:25 PM50 °FFog.1 mph88%30.21 "Hg3 mi
1:55 PM50 °FMore clouds than sun.2 mph88%30.21 "Hg4 mi
1:25 PM48 °FMostly cloudy.2 mph94%30.21 "Hg5 mi
12:55 PM48 °FLow clouds.3 mph94%30.21 "Hg5 mi
12:25 PM48 °FCloudy.3 mph94%30.21 "Hg4 mi
11:55 AM48 °FFog.2 mph100%30.18 "Hg2 mi
11:25 AM48 °FFog.3 mph100%30.18 "Hg2 mi
10:55 AM48 °FFog.3 mph100%30.18 "Hg1 mi
10:25 AM48 °FFog.3 mph100%30.15 "Hg1 mi
9:55 AM48 °FFog.3 mph100%30.15 "Hg0 mi
9:25 AM48 °FFog.5 mph100%30.15 "Hg1 mi
Weather by CustomWeather, © 2016

See weather overviewHow to use our weather pages